Regional Weather Roundup
Issued by NWS Albany, NY

Home | Current Version | Previous Version | Text Only | Print | Product List | Glossary On
Versions: 1 2 3 4 5 6 7 8 9 10 11 12 13 14 15 16 17 18 19 20 21 22 23 24 25 26 27 28 29 30 31 32 33 34 35 36 37 38 39 40 41 42 43 44 45 46 47 48 49 50
000
ASUS41 KALY 201210
RWRALY

NEW YORK STATE HOURLY WEATHER ROUNDUP
NATIONAL WEATHER SERVICE ALBANY NY
700 AM EST SAT DEC 20 2014

NOTE: "FAIR" INDICATES FEW OR NO CLOUDS BELOW 12,000 FEET WITH NO
SIGNIFICANT WEATHER AND/OR NO OBSTRUCTIONS TO VISIBILITY.

NYZ032-033-038>043-046>054-057>066-NYZ062>081-201300-
EAST


CITY           SKY/WX    TMP DP  RH WIND       PRES   REMARKS
ALBANY         MOCLDY    24  15  68 N6        30.31R WCI  17
GLENS FALLS    PTCLDY    19  15  84 CALM      30.30R
POUGHKEEPSIE   CLOUDY    29  18  63 N8        30.28R WCI  21
NEWBURGH       CLOUDY    27  21  80 NE12      30.27R WCI  16
MONTGOMERY     CLOUDY    28  20  71 NE8       30.26R WCI  20
WHITE PLAINS   CLOUDY    28  19  69 N6        30.24R WCI  22
ISLIP          CLOUDY    32  21  64 N5        30.24R WCI  27
NEW YORK CITY  CLOUDY    31  21  66 N9        30.27R WCI  23
CENTRAL PARK   CLOUDY    31  19  61 VRB6      30.28R WCI  25
$$

NYZ005>009-017-018-044>046-055-056-201300-
CENTRAL


CITY           SKY/WX    TMP DP  RH WIND       PRES   REMARKS
FULTON         CLOUDY    23  16  74 CALM      30.29R
SYRACUSE       CLOUDY    23  20  88 NW3       30.29R
ROME           MOCLDY    18  15  88 CALM      30.31R
ELMIRA         CLOUDY    29  22  75 W5        30.25R WCI  24
BINGHAMTON     CLOUDY    24  21  88 NW5       30.19R WCI  18
MONTICELLO     CLOUDY    23  18  80 CALM      30.21R
$$

NYZ026>034-041>043-201300-
NORTH


CITY           SKY/WX    TMP DP  RH WIND       PRES   REMARKS
WATERTOWN      CLEAR     15   8  73 CALM      30.31R
FORT DRUM      NOT AVBL
MASSENA        PTCLDY     3  -2  79 CALM      30.31R
SARANAC LAKE   PTCLDY     8  32 100 CALM      30.16R
PLATTSBURGH    CLOUDY    12   9  87 CALM      30.31R
$$

NYZ001>004-010>016-019>021-201300-
WEST


CITY           SKY/WX    TMP DP  RH WIND       PRES   REMARKS
NIAGARA FALLS  CLOUDY    26  23  88 SW3       30.29R
BUFFALO        MOCLDY    28  22  78 W5        30.28R WCI  23
DUNKIRK        CLOUDY    29  23  78 S5        30.28S WCI  24
JAMESTOWN      CLOUDY    23  18  80 W6        30.22S WCI  16
WELLSVILLE     CLOUDY    23  18  81 NW10      30.20R WCI  12
ROCHESTER      CLOUDY    28  20  71 W5        30.29R WCI  23
PENN YAN       CLOUDY    27  20  75 NW3       30.26R
$$

             KEY
       WCI = WIND CHILL INDEX
       VSB = VISIBILITY
       HX  = HEAT INDEX
$$


USA.gov is the U.S. government's official web portal to all federal, state and local government web resources and services.